Regional Weather Roundup
Issued by NWS Little Rock, AR

Home | Current Version | Previous Version | Graphics & Text | Print | Product List | Glossary On
Versions: 1 2 3 4 5 6 7 8 9 10 11 12 13 14 15 16 17 18 19 20 21 22 23 24 25 26 27 28 29 30 31 32 33 34 35 36 37 38 39 40 41 42 43 44 45 46 47 48 49 50
000
ASUS44 KLZK 181005
RWRLZK

WEATHER ROUNDUP FOR ARKANSAS
NATIONAL WEATHER SERVICE LITTLE ROCK AR
400 AM CST THU DEC 18 2014

NOTE: "FAIR" INDICATES FEW OR NO CLOUDS BELOW 12,000 FEET WITH NO
SIGNIFICANT WEATHER AND/OR OBSTRUCTIONS TO VISIBILITY.

ARZ001-003-010-029-181100-
NORTHWEST ARKANSAS

CITY           SKY/WX    TMP DP  RH WIND       PRES   REMARKS
FAYETTEVILLE   CLOUDY    37  34  89 SW6       30.16R
FORT SMITH     CLOUDY    37  34  89 E9        30.19S
HARRISON       CLOUDY    33  33 100 SE8       30.15F WCI  26
BENTONVILLE    CLOUDY    37  34  87 CALM      30.16S
ROGERS         MIX PCPN  36  35  96 CALM      30.16R FOG
SILOAM SPGS    CLOUDY    36  30  80 CALM      30.17S
HIGHFILL       CLOUDY    36  32  85 CALM      30.15R FOG
$$

ARZ004-005-016-181100-
NORTH CENTRAL ARKANSAS

CITY           SKY/WX    TMP DP  RH WIND       PRES   REMARKS
BATESVILLE     CLOUDY    36  32  87 E7        30.23F
FLIPPIN        CLOUDY    34  28  80 E3        30.18F
MTN HOME       CLOUDY    33  33 100 SE6       30.18F WCI  28
$$

ARZ040-041-181100-
WEST CENTRAL ARKANSAS

CITY           SKY/WX    TMP DP  RH WIND       PRES   REMARKS
MENA           CLOUDY    37  37 100 CALM      30.16S
MOUNT IDA      CLOUDY    37  36  96 CALM      30.15F
$$

ARZ009-017-025-026-028-181100-
NORTHEAST ARKANSAS

CITY           SKY/WX    TMP DP  RH WIND       PRES   REMARKS
CORNING        LGT RAIN  36  34  93 E6        30.25F
JONESBORO      CLOUDY    36  35  96 E7        30.24F
NEWPORT        LGT RAIN  37  35  92 E7        30.25F FOG
WALNUT RIDGE   CLOUDY    36  32  87 E5        30.24F
BLYTHEVILLE    CLOUDY    37  35  92 E5        30.25F
$$

ARZ022-023-033-042-044-181100-
CENTRAL ARKANSAS

CITY           SKY/WX    TMP DP  RH WIND       PRES   REMARKS
LITTLE ROCK    LGT RAIN  38  34  85 E5        30.23S
N LITTLE ROCK    N/A     36  36 100 E6        30.23S
JACKSONVILLE   LGT RAIN  37  35  96 E3        30.21F
SEARCY         LGT RAIN  37  35  92 NE7       30.24F
HOT SPRINGS    LGT RAIN  37  35  92 E5        30.20S FOG
RUSSELLVILLE   CLOUDY    36  33  89 CALM      30.20F
CLINTON        CLOUDY    36  34  93 CALM      30.23F
$$

ARZ036-181100-
EAST ARKANSAS

CITY           SKY/WX    TMP DP  RH WIND       PRES   REMARKS
WEST MEMPHIS   LGT RAIN  37  36  96 NE5       30.22F
$$

ARZ050-053-066-070-073-181100-
SOUTHWEST ARKANSAS

CITY           SKY/WX    TMP DP  RH WIND       PRES   REMARKS
ARKADELPHIA    CLOUDY    38  38 100 E3        30.21S FOG
CAMDEN         HVY RAIN  39  36  87 MISG      30.21S
TEXARKANA      RAIN      38  37  97 E6        30.18F FOG
EL DORADO      HVY RAIN  40  38  93 NW6       30.20R FOG
DE QUEEN       CLOUDY    39  38  96 E7        30.17S FOG
$$

ARZ056-057-069-181100-
SOUTHEAST ARKANSAS

CITY           SKY/WX    TMP DP  RH WIND       PRES   REMARKS
PINE BLUFF     LGT RAIN  39  36  89 NE6       30.22S
STUTTGART      CLOUDY    37  34  87 E6        30.22R
MONTICELLO     CLOUDY    40  38  93 E7        30.19F

$$





USA.gov is the U.S. government's official web portal to all federal, state and local government web resources and services.